Language: 


Des rapports , des résumés tant et plus, au choix de chacun....


Données statistiques de la station
Quotidien Rapport Janvier 11, 2017 Unités:  Anglais    Métrique   les deux
« Précédent Jour
Suivant Jour »
Quotidien Hebdomadaire Mensuel Annuel Actuel
  Haut: Bas: Moyen:
Température: 54.9 °F 32 °F 46.6 °F
Pt de rosée: 52.3 °F 33.6 °F 41.5 °F
Humidité: 96 % 0 % 83 %
Vitesse du vent: 17.7 mph 0 mph 6.6 mph
Rafales: 22.6 mph - -
Vent:- - West
Pression: 29.9 in 29.7 in -
Précipitation: 0.01 in    
Historical Graphs
 
 
Données statistiques pour Janvier 11, 2017
Heure Température Point de rosée Pression Vent Vitesse du vent Refales Humidité Pluie (taux horaire)
00:04 42.8 °F 41.7 °F 29.9 in WSW 4 mph 5.8 mph 96 % 0 in
00:09 42.8 °F 41.7 °F 29.9 in WSW 4 mph 5.8 mph 96 % 0 in
00:14 42.8 °F 41.7 °F 29.9 in West 4.7 mph 4.9 mph 96 % 0 in
00:19 43 °F 41.9 °F 29.9 in WSW 4 mph 4.9 mph 96 % 0 in
00:24 42.8 °F 41.4 °F 29.9 in WSW 2.7 mph 4.7 mph 95 % 0 in
00:29 42.8 °F 41.4 °F 29.9 in SW 3.8 mph 4 mph 95 % 0 in
00:34 42.8 °F 41.4 °F 29.9 in SW 4 mph 4.3 mph 95 % 0 in
00:39 42.8 °F 41.4 °F 29.9 in WSW 3.1 mph 5.4 mph 95 % 0 in
00:44 43 °F 41.5 °F 29.9 in SW 4 mph 5.6 mph 95 % 0 in
00:49 43.2 °F 42.1 °F 29.9 in SSW 3.8 mph 6.3 mph 96 % 0 in
00:54 43.2 °F 42.1 °F 29.9 in SW 4 mph 7.8 mph 96 % 0 in
00:59 43.2 °F 42.1 °F 29.9 in WSW 5.4 mph 7.8 mph 96 % 0 in
01:04 43.2 °F 41.7 °F 29.9 in WSW 6 mph 6.5 mph 95 % 0 in
01:09 43.3 °F 42.1 °F 29.9 in SW 3.8 mph 7.2 mph 95 % 0 in
01:14 43.3 °F 42.1 °F 29.9 in SSW 6.5 mph 7.2 mph 95 % 0 in
01:19 43.3 °F 42.1 °F 29.9 in SW 4.7 mph 7.4 mph 95 % 0 in
01:24 43.5 °F 42.1 °F 29.9 in SSW 4.3 mph 7.4 mph 95 % 0 in
01:29 43.5 °F 42.1 °F 29.9 in SSW 5.8 mph 7.4 mph 95 % 0 in
01:34 43.5 °F 42.1 °F 29.9 in SW 6 mph 7.4 mph 95 % 0 in
01:39 43.5 °F 42.1 °F 29.9 in SW 2.9 mph 7.4 mph 95 % 0 in
01:44 43.5 °F 42.1 °F 29.9 in SSW 6.3 mph 6.3 mph 95 % 0 in
01:49 43.5 °F 42.1 °F 29.9 in SSW 4.3 mph 6.3 mph 95 % 0 in
01:54 43.5 °F 42.1 °F 29.9 in SW 5.6 mph 6.3 mph 95 % 0 in
01:59 43.5 °F 42.1 °F 29.9 in SSW 4 mph 7.4 mph 95 % 0 in
02:04 43.5 °F 42.1 °F 29.9 in SSW 5.8 mph 7.4 mph 95 % 0 in
02:09 43.5 °F 42.3 °F 29.9 in SSW 4.3 mph 7.2 mph 95 % 0 in
02:14 43.5 °F 42.3 °F 29.9 in WSW 3.6 mph 8.5 mph 95 % 0 in
02:19 43.9 °F 42.4 °F 29.9 in WSW 5.8 mph 8.5 mph 95 % 0 in
02:24 43.9 °F 42.4 °F 29.9 in SSW 7.6 mph 8.1 mph 95 % 0 in
02:29 43.9 °F 42.4 °F 29.9 in WSW 4.3 mph 8.1 mph 95 % 0 in
02:34 43.9 °F 42.4 °F 29.9 in WSW 6.5 mph 7.6 mph 95 % 0 in
02:39 43.9 °F 42.4 °F 29.9 in SW 4 mph 7.6 mph 95 % 0 in
02:44 43.9 °F 42.4 °F 29.9 in SW 5.6 mph 7.6 mph 95 % 0 in
02:49 43.9 °F 42.4 °F 29.9 in WSW 5.4 mph 7.4 mph 95 % 0 in
02:54 44.1 °F 42.6 °F 29.9 in SW 4 mph 7.2 mph 95 % 0 in
02:59 43.9 °F 42.4 °F 29.9 in SW 4.7 mph 7.2 mph 95 % 0 in
03:06 32 °F 42.6 °F 29.9 in SW 4.9 mph 6.5 mph 0 % 0 in
03:11 44.1 °F 42.6 °F 29.9 in WSW 6.3 mph 7.4 mph 95 % 0 in
03:16 44.1 °F 42.6 °F 29.9 in WSW 4.9 mph 8.1 mph 95 % 0 in
03:21 44.1 °F 42.6 °F 29.9 in SW 5.4 mph 8.1 mph 95 % 0 in
03:26 44.1 °F 42.6 °F 29.9 in WSW 5.4 mph 7.8 mph 95 % 0 in
03:31 43.9 °F 42.4 °F 29.9 in SW 4.9 mph 7.2 mph 95 % 0 in
03:36 43.9 °F 42.4 °F 29.9 in SSW 6.7 mph 7.6 mph 95 % 0 in
03:41 43.9 °F 42.4 °F 29.9 in SSW 7.4 mph 7.8 mph 95 % 0 in
03:46 43.9 °F 42.8 °F 29.9 in SW 6.5 mph 10.3 mph 96 % 0 in
03:51 43.9 °F 42.8 °F 29.9 in SSW 5.8 mph 10.3 mph 96 % 0 in
03:56 43.5 °F 42.6 °F 29.8 in SW 8.5 mph 10.1 mph 96 % 0 in
04:01 43.5 °F 42.6 °F 29.8 in SW 5.8 mph 8.5 mph 96 % 0 in
04:06 43.5 °F 42.4 °F 29.8 in SW 6.5 mph 9.2 mph 96 % 0 in
04:11 43.5 °F 42.6 °F 29.8 in SW 4.3 mph 9.2 mph 96 % 0 in
04:16 43.5 °F 42.6 °F 29.8 in WSW 6.5 mph 8.1 mph 96 % 0 in
04:21 43.9 °F 42.8 °F 29.8 in SW 5.6 mph 8.1 mph 96 % 0 in
04:26 43.9 °F 42.8 °F 29.8 in SW 8.1 mph 10.5 mph 96 % 0 in
04:31 43.5 °F 42.6 °F 29.8 in WSW 5.8 mph 10.5 mph 96 % 0 in
04:36 43.5 °F 42.6 °F 29.8 in SW 6.5 mph 10.5 mph 96 % 0 in
04:41 43.5 °F 42.6 °F 29.8 in SSW 4.9 mph 9.6 mph 96 % 0 in
04:46 43.5 °F 42.4 °F 29.8 in SSW 6.5 mph 8.5 mph 96 % 0 in
04:51 43.5 °F 42.4 °F 29.8 in WSW 4.9 mph 8.5 mph 96 % 0 in
04:56 43.5 °F 42.4 °F 29.8 in WSW 5.6 mph 10.1 mph 96 % 0 in
05:01 43.3 °F 42.3 °F 29.8 in SSW 5.4 mph 10.1 mph 96 % 0 in
05:06 43.3 °F 42.3 °F 29.8 in WSW 7.6 mph 8.7 mph 96 % 0 in
05:11 43.3 °F 42.3 °F 29.8 in SSW 6.3 mph 8.7 mph 96 % 0 in
05:16 43.5 °F 42.4 °F 29.8 in SW 7.6 mph 10.1 mph 96 % 0 in
05:21 43.5 °F 42.4 °F 29.8 in SSW 5.6 mph 10.1 mph 96 % 0 in
05:26 43.5 °F 42.4 °F 29.8 in SSW 6.3 mph 8.1 mph 96 % 0 in
05:31 43.5 °F 42.4 °F 29.8 in SSW 5.6 mph 8.1 mph 96 % 0 in
05:36 43.5 °F 42.4 °F 29.8 in SSW 5.8 mph 7.8 mph 96 % 0 in
05:41 43.5 °F 42.6 °F 29.8 in SW 5.4 mph 8.7 mph 96 % 0 in
05:46 43.5 °F 42.6 °F 29.8 in South 4 mph 8.7 mph 96 % 0 in
05:51 43.5 °F 42.6 °F 29.8 in SW 8.7 mph 10.1 mph 96 % 0 in
05:56 43.5 °F 42.6 °F 29.8 in SSW 7.4 mph 10.1 mph 96 % 0 in
06:01 43.9 °F 42.8 °F 29.8 in SW 5.6 mph 8.9 mph 96 % 0 in
06:06 43.9 °F 42.8 °F 29.8 in WSW 6.3 mph 10.5 mph 96 % 0 in
06:11 43.9 °F 42.8 °F 29.8 in SW 7.4 mph 10.5 mph 96 % 0 in
06:16 44.1 °F 43 °F 29.8 in WSW 6 mph 12.5 mph 96 % 0 in
06:21 44.1 °F 43 °F 29.8 in SW 6.9 mph 12.5 mph 96 % 0 in
06:26 44.1 °F 43 °F 29.8 in SW 5.8 mph 11 mph 96 % 0 in
06:31 44.2 °F 43.2 °F 29.8 in SW 9.6 mph 11.9 mph 96 % 0 in
06:36 44.2 °F 42.8 °F 29.8 in SSW 9.2 mph 12.8 mph 95 % 0 in
06:41 44.2 °F 43 °F 29.7 in SSW 9.8 mph 12.8 mph 95 % 0 in
06:46 44.2 °F 43 °F 29.7 in SSW 10.7 mph 13.9 mph 95 % 0 in
06:51 44.2 °F 43 °F 29.7 in SW 8.5 mph 13.9 mph 95 % 0 in
06:56 44.4 °F 43.2 °F 29.8 in WSW 8.5 mph 12.5 mph 95 % 0 in
07:01 44.4 °F 43.2 °F 29.8 in SSW 9.2 mph 12.5 mph 95 % 0 in
07:06 44.8 °F 43.3 °F 29.8 in SW 5.8 mph 11.4 mph 95 % 0 in
07:11 44.8 °F 43.3 °F 29.7 in SW 8.5 mph 11.4 mph 95 % 0 in
07:16 45 °F 43.5 °F 29.7 in SSW 7.4 mph 14.8 mph 95 % 0 in
07:21 45.1 °F 43.7 °F 29.7 in SSW 6.5 mph 14.8 mph 95 % 0 in
07:26 45.1 °F 43.7 °F 29.7 in WSW 10.1 mph 12.3 mph 95 % 0 in
07:31 45.1 °F 43.9 °F 29.7 in SSW 4.9 mph 12.3 mph 95 % 0 in
07:36 45.3 °F 44.1 °F 29.7 in WSW 6 mph 12.3 mph 95 % 0 in
07:41 45.3 °F 44.1 °F 29.7 in SW 8.7 mph 10.5 mph 95 % 0 in
07:46 45.9 °F 44.4 °F 29.7 in WSW 8.5 mph 12.3 mph 95 % 0 in
07:51 45.9 °F 44.4 °F 29.7 in SW 12.3 mph 13 mph 95 % 0 in
07:56 46 °F 44.8 °F 29.7 in SW 8.1 mph 14.5 mph 95 % 0 in
08:01 46.2 °F 45 °F 29.7 in WSW 11 mph 14.5 mph 95 % 0 in
08:06 46.6 °F 45.1 °F 29.7 in SW 8.5 mph 14.8 mph 95 % 0 in
08:11 46.6 °F 45.3 °F 29.7 in WSW 9.8 mph 14.8 mph 95 % 0 in
08:16 46.6 °F 45.3 °F 29.7 in SSW 10.1 mph 12.5 mph 95 % 0 in
08:21 46.8 °F 45.5 °F 29.7 in WSW 10.1 mph 12.8 mph 95 % 0 in
08:26 46.8 °F 45.5 °F 29.8 in SSW 7.6 mph 12.8 mph 95 % 0 in
08:31 46.9 °F 45.7 °F 29.8 in WSW 8.9 mph 12.1 mph 95 % 0 in
08:36 46.9 °F 45.7 °F 29.8 in WSW 10.5 mph 12.5 mph 95 % 0 in
08:41 46.9 °F 45.3 °F 29.7 in WSW 10.5 mph 13 mph 94 % 0 in
08:46 47.1 °F 45.9 °F 29.7 in WSW 10.5 mph 13 mph 95 % 0 in
08:51 47.3 °F 46 °F 29.7 in SW 10.7 mph 15.4 mph 95 % 0 in
08:56 47.3 °F 46 °F 29.7 in WSW 8.7 mph 15.4 mph 95 % 0 in
09:01 47.3 °F 45.7 °F 29.7 in WSW 9.8 mph 11.2 mph 94 % 0 in
09:06 47.3 °F 46 °F 29.7 in WSW 9.6 mph 12.5 mph 95 % 0 in
09:11 47.5 °F 46.2 °F 29.8 in WSW 8.5 mph 15.2 mph 95 % 0 in
09:16 47.5 °F 46.2 °F 29.8 in WSW 8.1 mph 15.2 mph 95 % 0 in
09:21 47.5 °F 46.2 °F 29.8 in WSW 8.7 mph 11.9 mph 95 % 0 in
09:26 47.5 °F 45.9 °F 29.7 in SW 10.5 mph 12.3 mph 94 % 0 in
09:31 47.7 °F 46 °F 29.7 in WSW 10.1 mph 13 mph 94 % 0 in
09:33 47.7 °F 46 °F 29.7 in WSW 12.8 mph 13.2 mph 94 % 0 in
09:38 47.7 °F 46 °F 29.7 in WSW 16.1 mph 16.6 mph 94 % 0 in
09:43 47.8 °F 46.2 °F 29.7 in WSW 13 mph 16.6 mph 94 % 0 in
09:48 47.8 °F 46.2 °F 29.7 in WSW 10.7 mph 14.8 mph 94 % 0 in
09:54 48 °F 46.4 °F 29.7 in WSW 8.1 mph 14.8 mph 94 % 0 in
09:59 48 °F 46.4 °F 29.7 in WSW 9.8 mph 13.2 mph 94 % 0 in
10:04 48.2 °F 46.6 °F 29.7 in WSW 7.6 mph 12.5 mph 94 % 0 in
10:09 48.2 °F 46.6 °F 29.7 in WSW 12.8 mph 13 mph 94 % 0 in
10:14 48.2 °F 46.6 °F 29.7 in WSW 8.5 mph 13.2 mph 94 % 0 in
10:19 48.4 °F 46.8 °F 29.7 in WSW 12.5 mph 13.2 mph 94 % 0.01 in
10:24 48.4 °F 46.8 °F 29.7 in West 10.1 mph 12.5 mph 94 % 0.01 in
10:29 48.6 °F 46.9 °F 29.7 in WSW 11 mph 15.4 mph 94 % 0.01 in
10:34 48.7 °F 47.1 °F 29.7 in WSW 11 mph 15.4 mph 94 % 0.01 in
10:39 48.9 °F 47.3 °F 29.7 in WSW 8.7 mph 13.4 mph 94 % 0.01 in
10:44 49.1 °F 47.5 °F 29.7 in WSW 8.9 mph 11 mph 94 % 0.01 in
10:49 49.5 °F 47.8 °F 29.7 in West 8.7 mph 13.2 mph 94 % 0.01 in
10:54 49.8 °F 48.2 °F 29.7 in WSW 9.8 mph 13.2 mph 94 % 0.01 in
10:59 50 °F 48.4 °F 29.7 in West 11 mph 17.9 mph 94 % 0.01 in
11:04 50 °F 48.4 °F 29.7 in West 14.5 mph 17.9 mph 94 % 0.01 in
11:09 50.2 °F 48.6 °F 29.7 in WSW 10.1 mph 16.1 mph 94 % 0.01 in
11:14 50.7 °F 48.9 °F 29.7 in WSW 13.2 mph 16.1 mph 94 % 0.01 in
11:19 51.1 °F 49.5 °F 29.7 in WSW 10.3 mph 17 mph 94 % 0 in
11:24 51.4 °F 49.6 °F 29.7 in West 12.8 mph 17 mph 94 % 0 in
11:29 51.6 °F 49.8 °F 29.7 in WNW 13 mph 16.8 mph 94 % 0 in
11:34 52 °F 50 °F 29.7 in West 17.4 mph 22.6 mph 93 % 0 in
11:39 52.3 °F 50.4 °F 29.7 in West 15.2 mph 22.6 mph 93 % 0 in
11:44 52.3 °F 50.4 °F 29.7 in West 13.2 mph 18.1 mph 93 % 0 in
11:49 52.5 °F 50.7 °F 29.7 in West 14.1 mph 18.1 mph 93 % 0 in
11:54 52.5 °F 51.1 °F 29.7 in West 11 mph 17.9 mph 94 % 0 in
11:59 52.9 °F 51.1 °F 29.7 in WSW 8.1 mph 17.9 mph 94 % 0 in
12:04 53.4 °F 51.8 °F 29.7 in West 12.3 mph 17.4 mph 94 % 0 in
12:09 54 °F 52.3 °F 29.7 in West 12.8 mph 15.9 mph 94 % 0 in
12:14 54 °F 52.2 °F 29.7 in West 11 mph 14.8 mph 94 % 0 in
12:19 53.2 °F 51.1 °F 29.7 in WSW 11 mph 15.2 mph 92 % 0 in
12:24 53.2 °F 50.9 °F 29.7 in West 12.5 mph 15.2 mph 92 % 0 in
12:29 53.2 °F 50.9 °F 29.7 in West 6.5 mph 15.2 mph 92 % 0 in
12:34 53.1 °F 50.7 °F 29.7 in West 8.1 mph 17.2 mph 92 % 0 in
12:39 53.2 °F 50.5 °F 29.7 in WNW 10.3 mph 17.2 mph 91 % 0 in
12:44 53.8 °F 51.1 °F 29.7 in West 14.5 mph 16.6 mph 91 % 0 in
12:49 54 °F 51.3 °F 29.7 in WSW 7.8 mph 17.2 mph 90 % 0 in
12:54 54 °F 50.5 °F 29.7 in West 3.8 mph 17.2 mph 88 % 0 in
12:59 54.3 °F 50.9 °F 29.7 in West 12.8 mph 20.1 mph 88 % 0 in
13:04 54.3 °F 50 °F 29.7 in West 17.7 mph 20.1 mph 85 % 0 in
13:09 54.9 °F 50 °F 29.7 in NW 9.6 mph 17.7 mph 84 % 0 in
13:14 54.9 °F 49.5 °F 29.7 in WNW 6.5 mph 17.7 mph 82 % 0 in
13:19 54 °F 46.2 °F 29.7 in North 6 mph 16.6 mph 75 % 0 in
13:24 54 °F 46.9 °F 29.7 in WNW 7.6 mph 14.5 mph 77 % 0 in
13:29 53.4 °F 45.1 °F 29.7 in WSW 10.3 mph 12.3 mph 73 % 0 in
13:34 53.1 °F 44.6 °F 29.7 in WNW 6.5 mph 12.3 mph 73 % 0 in
13:39 52.5 °F 43.5 °F 29.7 in WNW 7.4 mph 12.8 mph 71 % 0 in
13:44 52.5 °F 43.7 °F 29.7 in WNW 6 mph 13.6 mph 72 % 0 in
13:49 52.2 °F 43.7 °F 29.7 in NNW 6.5 mph 13.6 mph 73 % 0 in
13:54 52 °F 43.2 °F 29.7 in North 7.2 mph 9.2 mph 72 % 0 in
13:59 51.6 °F 43.2 °F 29.7 in North 2.9 mph 9.2 mph 73 % 0 in
14:04 51.6 °F 43.9 °F 29.7 in West 5.4 mph 8.7 mph 75 % 0 in
14:09 51.4 °F 44.1 °F 29.8 in NNW 3.4 mph 6.5 mph 76 % 0 in
14:14 51.4 °F 44.4 °F 29.8 in NW 5.4 mph 9.6 mph 77 % 0 in
14:19 51.8 °F 45.9 °F 29.8 in North 3.6 mph 9.6 mph 80 % 0 in
14:24 52.2 °F 45.9 °F 29.7 in WNW 3.8 mph 11 mph 79 % 0 in
14:29 52.5 °F 45.7 °F 29.7 in NNW 6 mph 15.4 mph 77 % 0 in
14:34 52.9 °F 45.9 °F 29.7 in WNW 6 mph 15.4 mph 77 % 0 in
14:39 52.9 °F 45.5 °F 29.7 in WNW 3.1 mph 10.3 mph 76 % 0 in
14:44 52.5 °F 44.8 °F 29.7 in NNW 6.3 mph 10.3 mph 75 % 0 in
14:49 52.2 °F 44.4 °F 29.7 in WNW 4.3 mph 8.5 mph 75 % 0 in
14:54 51.8 °F 43.7 °F 29.7 in West 4.9 mph 7.8 mph 74 % 0 in
14:59 51.6 °F 43.9 °F 29.7 in North 3.1 mph 8.5 mph 75 % 0 in
15:04 51.3 °F 43.5 °F 29.7 in SE 7.2 mph 8.5 mph 75 % 0 in
15:09 51.1 °F 43.7 °F 29.7 in NNW 4.3 mph 8.5 mph 76 % 0 in
15:14 51.3 °F 44.2 °F 29.7 in West 9.2 mph 9.2 mph 77 % 0 in
15:19 51.4 °F 43.3 °F 29.7 in WNW 5.8 mph 14.8 mph 74 % 0 in
15:24 51.4 °F 41.2 °F 29.8 in NNW 10.3 mph 14.8 mph 68 % 0 in
15:29 51.1 °F 41.2 °F 29.8 in NW 2.9 mph 13.2 mph 69 % 0 in
15:34 50.9 °F 40.6 °F 29.8 in WNW 6.3 mph 13.2 mph 68 % 0 in
15:39 50.7 °F 40.5 °F 29.8 in WNW 3.8 mph 12.5 mph 68 % 0 in
15:44 50.7 °F 39.7 °F 29.8 in North 7.8 mph 12.5 mph 66 % 0 in
15:49 50.5 °F 39.9 °F 29.8 in West 3.4 mph 11 mph 67 % 0 in
15:51 50.7 °F 40.1 °F 29.8 in North 5.8 mph 11 mph 67 % 0 in
15:56 50.9 °F 40.3 °F 29.8 in NNW 2.9 mph 11 mph 67 % 0 in
16:01 50.5 °F 39.9 °F 29.8 in NNE 5.8 mph 11 mph 67 % 0 in
16:06 50.2 °F 39.6 °F 29.8 in West 3.1 mph 6.3 mph 67 % 0 in
16:11 50.4 °F 40.3 °F 29.8 in NE 3.4 mph 8.5 mph 68 % 0 in
16:16 49.8 °F 39.9 °F 29.8 in WNW 10.3 mph 17.4 mph 69 % 0 in
16:21 49.3 °F 39.9 °F 29.8 in WNW 6.5 mph 17.4 mph 70 % 0 in
16:26 48.7 °F 39 °F 29.8 in NNW 5.6 mph 18.1 mph 69 % 0 in
16:31 48.4 °F 37.9 °F 29.8 in WNW 11.4 mph 18.1 mph 67 % 0 in
16:36 48.4 °F 36.3 °F 29.8 in NNW 7.8 mph 17.4 mph 63 % 0 in
16:41 48.4 °F 35.1 °F 29.8 in NNW 3.1 mph 13 mph 60 % 0 in
16:46 48.4 °F 35.1 °F 29.8 in North 5.6 mph 12.8 mph 60 % 0 in
16:51 48.4 °F 35.1 °F 29.8 in North 5.8 mph 13.2 mph 60 % 0 in
16:56 48 °F 35.2 °F 29.8 in North 6 mph 13.2 mph 61 % 0 in
17:01 48 °F 35.6 °F 29.8 in WNW 8.1 mph 12.8 mph 62 % 0 in
17:06 48 °F 35.2 °F 29.8 in NNW 4 mph 12.8 mph 61 % 0 in
17:11 47.8 °F 35.4 °F 29.8 in NW 7.4 mph 13 mph 62 % 0 in
17:16 47.8 °F 35.4 °F 29.8 in West 5.4 mph 13 mph 62 % 0 in
17:21 47.7 °F 35.8 °F 29.8 in NNW 7.8 mph 10.7 mph 63 % 0 in
17:26 47.7 °F 36.1 °F 29.8 in NNW 8.1 mph 10.7 mph 64 % 0 in
17:31 47.5 °F 36 °F 29.8 in West 4.9 mph 8.7 mph 64 % 0 in
17:36 47.5 °F 35.4 °F 29.8 in NNW 5.6 mph 8.7 mph 63 % 0 in
17:41 47.3 °F 35.4 °F 29.8 in West 6.5 mph 8.7 mph 63 % 0 in
17:46 47.1 °F 34.9 °F 29.8 in West 2 mph 11 mph 62 % 0 in
17:51 47.1 °F 35.2 °F 29.8 in NNW 3.4 mph 11 mph 63 % 0 in
17:56 46.9 °F 34.5 °F 29.9 in WNW 5.8 mph 9.8 mph 62 % 0 in
18:01 46.9 °F 34.5 °F 29.9 in West 6.3 mph 8.7 mph 62 % 0 in
18:06 46.9 °F 34.5 °F 29.9 in ENE 3.6 mph 8.7 mph 62 % 0 in
18:11 46.9 °F 34.5 °F 29.8 in NNW 4.7 mph 8.1 mph 62 % 0 in
18:16 46.9 °F 34.2 °F 29.8 in NW 4.7 mph 8.1 mph 61 % 0 in
18:21 46.9 °F 34.2 °F 29.8 in West 2.5 mph 6.7 mph 61 % 0 in
18:26 46.8 °F 34.5 °F 29.9 in NNW 3.4 mph 10.7 mph 62 % 0 in
18:31 46.8 °F 34.2 °F 29.9 in NW 1.6 mph 10.7 mph 61 % 0 in
18:36 46.6 °F 34.3 °F 29.9 in WNW 4.3 mph 8.1 mph 62 % 0 in
18:41 46.6 °F 34.2 °F 29.9 in NW 1.1 mph 8.7 mph 62 % 0 in
18:46 46.6 °F 34.5 °F 29.9 in WNW 2.5 mph 8.7 mph 63 % 0 in
18:51 46.2 °F 34.9 °F 29.9 in WNW 7.6 mph 7.6 mph 64 % 0 in
18:56 46.2 °F 35.2 °F 29.9 in WNW 3.1 mph 7.6 mph 65 % 0 in
19:01 46 °F 35.4 °F 29.9 in NNW 7.4 mph 7.6 mph 66 % 0 in
19:06 45.9 °F 35.6 °F 29.9 in NNW 2 mph 7.6 mph 67 % 0 in
19:11 45.9 °F 36 °F 29.9 in WNW 7.2 mph 7.4 mph 68 % 0 in
19:16 45.9 °F 36.1 °F 29.9 in WSW 3.6 mph 7.2 mph 69 % 0 in
19:21 45.7 °F 36 °F 29.9 in NNW 4.3 mph 8.1 mph 69 % 0 in
19:26 45.1 °F 36 °F 29.9 in West 5.4 mph 10.7 mph 70 % 0 in
19:31 45.1 °F 36 °F 29.9 in WNW 6.9 mph 10.7 mph 70 % 0 in
19:36 45.1 °F 36 °F 29.9 in NNW 3.1 mph 10.1 mph 70 % 0 in
19:41 45.1 °F 36 °F 29.9 in WNW 2.9 mph 10.1 mph 70 % 0 in
19:46 45.1 °F 36 °F 29.9 in North 2.7 mph 7.6 mph 70 % 0 in
19:51 45.1 °F 36 °F 29.9 in WSW 3.4 mph 7.6 mph 70 % 0 in
19:56 45.7 °F 36 °F 29.9 in NNW 7.2 mph 8.7 mph 69 % 0 in
20:01 45.7 °F 35.6 °F 29.9 in WNW 5.6 mph 8.7 mph 68 % 0 in
20:06 45.3 °F 35.4 °F 29.9 in North 6 mph 10.5 mph 68 % 0 in
20:11 45.1 °F 35.2 °F 29.9 in NNW 8.1 mph 11.2 mph 68 % 0 in
20:16 45.1 °F 35.1 °F 29.9 in NNW 7.4 mph 11.2 mph 68 % 0 in
20:21 45 °F 34.5 °F 29.9 in NW 3.8 mph 7.8 mph 67 % 0 in
20:26 45 °F 34.5 °F 29.9 in North 5.4 mph 7.8 mph 67 % 0 in
20:31 44.4 °F 34.2 °F 29.9 in North 2.9 mph 7.8 mph 67 % 0 in
20:36 44.2 °F 33.6 °F 29.9 in West 1.3 mph 7.6 mph 66 % 0 in
20:41 44.2 °F 34.2 °F 29.9 in West 1.1 mph 6.3 mph 67 % 0 in
20:46 44.2 °F 34.2 °F 29.9 in Calm   6.5 mph 67 % 0 in
20:51 44.2 °F 34.3 °F 29.9 in NW 3.1 mph 7.4 mph 68 % 0 in
20:56 44.4 °F 34.5 °F 29.9 in West 4 mph 7.4 mph 68 % 0 in
21:01 44.4 °F 34.5 °F 29.9 in West 3.8 mph 7.4 mph 68 % 0 in
21:06 44.4 °F 34.5 °F 29.9 in WNW 4.9 mph 8.1 mph 68 % 0 in
21:11 44.2 °F 34.9 °F 29.9 in West 3.1 mph 8.1 mph 69 % 0 in
21:16 43.9 °F 34.7 °F 29.9 in West 3.6 mph 6.3 mph 70 % 0 in
21:21 43.5 °F 34.5 °F 29.9 in West 4.9 mph 6 mph 70 % 0 in
21:26 43.3 °F 34.5 °F 29.9 in West 5.4 mph 6 mph 71 % 0 in
21:31 43.2 °F 34.7 °F 29.9 in West 2.9 mph 6 mph 72 % 0 in
21:36 42.8 °F 34.7 °F 29.9 in Calm   4.9 mph 73 % 0 in
21:41 42.8 °F 34.7 °F 29.9 in West 2.5 mph 4.3 mph 73 % 0 in
21:46 42.6 °F 34.9 °F 29.9 in WSW 3.6 mph 5.6 mph 74 % 0 in
21:51 42.6 °F 34.9 °F 29.9 in West 3.6 mph 7.4 mph 74 % 0 in
21:56 42.4 °F 35.1 °F 29.9 in West 6 mph 7.4 mph 75 % 0 in
22:01 42.4 °F 35.4 °F 29.9 in North 3.8 mph 6 mph 76 % 0 in
22:06 42.4 °F 35.4 °F 29.9 in NNW 3.8 mph 7.4 mph 76 % 0 in
22:11 42.6 °F 35.4 °F 29.9 in North 6.5 mph 7.4 mph 76 % 0 in
22:16 43 °F 36 °F 29.9 in WSW 1.3 mph 7.8 mph 76 % 0 in
22:21 43.2 °F 35.8 °F 29.9 in West 6 mph 7.8 mph 75 % 0 in
22:26 43.2 °F 35.4 °F 29.9 in WSW 5.8 mph 9.8 mph 74 % 0 in
22:31 42.8 °F 35.1 °F 29.9 in West 7.6 mph 9.8 mph 74 % 0 in
22:36 42.6 °F 34.9 °F 29.9 in West 7.8 mph 8.7 mph 74 % 0 in
22:41 42.3 °F 34.5 °F 29.9 in WNW 5.6 mph 8.5 mph 74 % 0 in
22:47 42.1 °F 34.3 °F 29.9 in WNW 3.8 mph 7.8 mph 74 % 0 in
22:51 41.9 °F 34.2 °F 29.9 in WSW 6 mph 8.1 mph 74 % 0 in
22:56 41.9 °F 34.5 °F 29.9 in West 2.5 mph 8.1 mph 75 % 0 in
23:02 41.7 °F 34.3 °F 29.9 in WNW 2.9 mph 6.7 mph 75 % 0 in
23:07 41.5 °F 34.2 °F 29.9 in West 4.7 mph 7.8 mph 75 % 0 in
23:12 41.5 °F 34.2 °F 29.9 in WSW 8.1 mph 8.9 mph 75 % 0 in
23:17 41.7 °F 34.3 °F 29.9 in WNW 4.3 mph 8.9 mph 75 % 0 in
23:22 41.9 °F 34.2 °F 29.9 in WSW 3.4 mph 8.7 mph 74 % 0 in
23:27 41.9 °F 34.2 °F 29.9 in NW 4.9 mph 11 mph 74 % 0 in
23:32 41.9 °F 34.2 °F 29.9 in WNW 10.1 mph 11 mph 74 % 0 in
23:37 41.9 °F 34 °F 29.9 in WNW 3.8 mph 10.1 mph 73 % 0 in
23:42 42.1 °F 34 °F 29.9 in West 7.8 mph 10.1 mph 73 % 0 in
23:47 42.1 °F 34 °F 29.9 in West 6 mph 9.8 mph 73 % 0 in
23:52 42.1 °F 34 °F 29.9 in WSW 6.5 mph 10.1 mph 73 % 0 in
23:57 41.9 °F 34 °F 29.9 in West 6 mph 10.1 mph 73 % 0 in
Le Gheer Warneton
Courtoisie de Weather Underground - 2.5 mb

Mise a jour : 18/12/2017 17:27:12
Généré par Cumulus 1.9.4 (1099)